Location: Vancouver
(49.2827°N, 123.1207°W)
Time: 22:46:58
(UTC-07:00)

ISS - Pass Details

Date: 30 June 2024
Orbit: 410 x 424 km, 51.6° (Epoch: 12 July)

Event Time Altitude Azimuth Distance (km) Brightness Sun altitude
Exits shadow 01:45:41 14° 113° (ESE) 1,259 -1.5 -17.3°
Drops below altitude 10° 01:46:41 10° 97° (E) 1,486 -1.0 -17.3°
Sets 01:49:17 0° 76° (ENE) 2,356 0.3 -17.2°
